Regional Weather Roundup
Issued by NWS Sterling, VA

Home | Current Version | Previous Version | Text Only | Print | Product List | Glossary Off
Versions: 1 2 3 4 5 6 7 8 9 10 11 12 13 14 15 16 17 18 19 20 21 22 23 24 25 26 27

000
ASUS41 KLWX 251810
RWRLWX

REGIONAL WEATHER ROUNDUP
NATIONAL WEATHER SERVICE BALTIMORE MD/WASHINGTON DC
200 PM EDT SAT MAR 25 2017

Note: "FAIR" indicates few or no clouds below 12,000 feet
with no significant weather and/or obstructions to visibility.
 TC=TEMPERATURE CELSIUS

 * =Non NWS site. Station does not report precipitation (e.g. rain,
    snow, etc.), thunder, or fog.

DCZ001-MDZ009-015-VAZ040>042-051-053>054-251900-
WASHINGTON METRO

CITY           SKY/WX    TMP DP  RH WIND       PRES   REMARKS
WASHINGTON NAT CLOUDY    73  53  49 S8        30.16F
DULLES         CLOUDY    77  50  38 N5        30.16F
ANDREWS AFB    FAIR      75  51  42 W6        30.15F
FT BELVOIR     FAIR      78  51  37 SW3       30.15F
QUANTICO       FAIR      66  52  60 S13       30.16F
COLLEGE PARK*  FAIR      73  50  43 CALM      30.15F
LEESBURG*      FAIR      77  55  47 NW7       30.16F
MANASSAS*        N/A     78  52  40 VRB3      30.16F

$$

MDZ006>007-011-014-251900-
BALTIMORE METRO

CITY           SKY/WX    TMP DP  RH WIND       PRES   REMARKS
BWI AIRPORT    CLOUDY    77  52  41 NW7       30.15S
MD SCIENCE CTR   N/A     80  50  34 MISG      30.15F
MARTIN STATE   MOSUNNY   70  54  56 SE8       30.17F
ANNAPOLIS      FAIR      61  49  64 SE15      30.16F
FORT MEADE*    FAIR      77  48  36 W9        30.18F

$$

MDZ012-015-019>023-251900-
MARYLAND EASTERN SHORE

CITY           SKY/WX    TMP DP  RH WIND       PRES   REMARKS
OCEAN CITY     FAIR      73  52  47 SW12      30.17F
SALISBURY      FAIR      73  52  47 SW12      30.17F
BAY BRIDGE AP* FAIR      73  52  46 S9        30.16S
CAMBRIDGE*     SUNNY     73  52  46 VRB3      30.17S
EASTON*        MOSUNNY   73  50  43 SW8       30.21S

$$

MDZ017>025-251900-
SOUTHERN MARYLAND

CITY           SKY/WX    TMP DP  RH WIND       PRES   REMARKS
PATUXENT RIVER PTSUNNY   76  56  49 W12       30.17S
ST INIGOES     FAIR      75  52  44 SW8       30.17F
LEONARDTOWN*   FAIR      75  50  41 SW12      30.18F

$$

MDZ003>005-251900-
NORTH CENTRAL MARYLAND

CITY           SKY/WX    TMP DP  RH WIND       PRES   REMARKS
FREDERICK*     SUNNY     79  55  44 SW8       30.18F
HAGERSTOWN APT FAIR      76  52  43 W9        30.15F
WESTMINSTER*   FAIR      75  54  46 W10       30.16F

$$

MDZ501>502-251900-
WESTERN MARYLAND

CITY           SKY/WX    TMP DP  RH WIND       PRES   REMARKS
OAKLAND*       PTSUNNY   61  46  59 NW7       30.24S
CUMBERLAND*    FAIR      73  48  40 NW7       30.20S

$$

VAZ025>031-251900-
SHENANDOAH VALLEY

CITY           SKY/WX    TMP DP  RH WIND       PRES   REMARKS
WINCHESTER*    FAIR      73  50  43 SW6       30.16F
FRONT ROYAL*   FAIR      75  52  43 CALM      30.15F
LURAY*         FAIR      77  54  44 S5        30.17F
NEW MARKET*    FAIR      75  49  40 CALM      30.16F
STAUNTON*      FAIR      73  51  45 S5        30.20F
WAYNESBORO*    FAIR      73  51  46 NW3       30.20F

$$

WVZ021-048>050-054>055-251900-
EASTERN WEST VIRGINIA PANHANDLE

CITY           SKY/WX    TMP DP  RH WIND       PRES   REMARKS
MARTINSBURG    FAIR      76  50  40 S8        30.15F
PETERSBURG*    CLOUDY    74  53  46 W7        30.18S

$$

VAZ036>039-050-251900-
CENTRAL FOOTHILLS

CITY           SKY/WX    TMP DP  RH WIND       PRES   REMARKS
CHARLOTTESVILL FAIR      79  50  36 SW5       30.16F
CULPEPER*      FAIR      78  53  42 S5        30.17S
ORANGE*        FAIR      77  50  38 W6        30.17F
GORDONSVILLE*  FAIR      77  51  41 SW7       30.16F
WARRENTON*     FAIR      79  45  29 SE5       30.16F

$$

VAZ055>057-251900-
NORTH AND CENTRAL PIEDMONT

CITY           SKY/WX    TMP DP  RH WIND       PRES   REMARKS
FREDERICKSBRG* FAIR      78  53  41 W7        30.15F
STAFFORD*      FAIR      77  51  39 S3        30.20F

$$

NCZ024-NYZ072-PAZ021-071-VAZ022-071-251900-
OTHER REGIONAL OBSERVATIONS

CITY           SKY/WX    TMP DP  RH WIND       PRES   REMARKS
NEW YORK CITY  FAIR      60  39  45 NE6       30.21R
PHILADELPHIA   PTSUNNY   74  50  42 W5        30.14F
PITTSBURGH     CLOUDY    70  51  51 W10       30.17S
ROANOKE        FAIR      72  49  44 E6        30.23F
RICHMOND       PTSUNNY   78  52  40 SW14      30.20F
RALEIGH        PTSUNNY   72  50  45 SW18G25   30.28F

$$

ANZ530>537-251900-
MARINE OBSERVATIONS

STATION/POSITION TIME  TEMP    WIND        PRES
                       AIR SEA DIR/SP/G
                 (UTC) (F)     (DEG/KT/KT) (MB)
THOMAS PT LIGHT  1800   63 45  150/ 10/ 11   N/A
BALT KEY BRIDGE  1742   62     120/  9/  9 1021.1F
COVE POINT       1742   69      CALM  /  7 1022.3F
LEWISETTA        1742   72 49  280/ 12/ 16 1021.6F
SOLOMONS ISLAND  1742   72 47  260/ 10/ 15   N/A
PINEY POINT      1736          360/  8/  9   N/A

$$





USA.gov is the U.S. government's official web portal to all federal, state and local government web resources and services.